Weather History for Muscle Shoals, AL

Change the Weather History Date:

Sunday, February 17, 2013

  Actual Average Record
Temperature  
Mean Temperature 36 °F 46 °F  
Max Temperature 51 °F 56 °F 80 °F (1927)
Min Temperature 21 °F 36 °F 0 °F (1958)
Degree Days  
Heating Degree Days 29 19  
Month to date heating degree days 337 360  
Since 1 July heating degree days 2010 2340  
Cooling Degree Days 0 0  
Month to date cooling degree days 0 0  
Year to date cooling degree days 7 0  
Moisture  
Dew Point 17 °F    
Average Humidity 49    
Maximum Humidity 75    
Minimum Humidity 22    
Precipitation  
Precipitation 0.00 in 0.17 in 2.18 in (1910)
Month to date precipitation 1.29 2.80  
Year to date precipitation 10.03 7.41  
Snow  
Snow 0.00 in - - ()
Month to date snowfall T  
Since 1 July snowfall T  
Snow Depth 0.00 in    
Sea Level Pressure  
Sea Level Pressure 30.26 in    
Wind  
Wind Speed 3 mph (South)    
Max Wind Speed 9 mph    
Max Gust Speed 13 mph    
Visibility 10 miles    
Events      
T = Trace of Precipitation, MM = Missing Value Source: NWS Daily Summary

Daily Weather History Graph

Daily Weather History Graph

Search for Another Location

Airport:

Trip Planner

Search our weather history database for the weather conditions in past years. The results will help you decide how hot, cold, wet, or windy it might be!

Date:

Astronomy

Feb. 17, 2013 Rise Set
Actual Time 6:33 AM CST 5:35 PM CST
Civil Twilight 6:07 AM CST 6:01 PM CST
Nautical Twilight 5:38 AM CST 6:30 PM CST
Astronomical Twilight 5:09 AM CST 7:00 PM CST
Moon 10:45 AM CST (2/17) 12:12 AM CST (2/17)
Length of Visible Light 11h 53m
Length of Day
11h 02m
Waxing Crescent, 49% of the Moon is Illuminated
Feb 17
Waxing Crescent
Feb 17
First Quarter
Feb 25
Full
Mar 4
Last Quarter
Mar 11
New

Hourly Weather History & Observations

Time (CST) Temp. Windchill Dew Point Humidity Pressure Visibility Wind Dir Wind Speed Gust Speed Precip Events Conditions
12:53 AM 28.0 °F 24.2 °F 15.1 °F 58% 30.28 in 10.0 mi WSW 3.5 mph - N/A   Clear
1:53 AM 24.1 °F - 14.0 °F 65% 30.27 in 10.0 mi Calm Calm - N/A   Clear
2:53 AM 24.1 °F - 16.0 °F 71% 30.25 in 10.0 mi Calm Calm - N/A   Clear
3:53 AM 23.0 °F - 15.1 °F 72% 30.26 in 10.0 mi Calm Calm - N/A   Clear
4:53 AM 24.1 °F - 16.0 °F 71% 30.27 in 10.0 mi Calm Calm - N/A   Overcast
5:53 AM 26.1 °F - 19.0 °F 75% 30.28 in 10.0 mi Calm Calm - N/A   Overcast
6:53 AM 28.0 °F - 19.0 °F 69% 30.30 in 10.0 mi Calm Calm - N/A   Overcast
7:53 AM 30.9 °F - 19.9 °F 64% 30.31 in 10.0 mi Calm Calm - N/A   Overcast
8:53 AM 35.1 °F - 17.1 °F 48% 30.32 in 10.0 mi Calm Calm - N/A   Mostly Cloudy
9:53 AM 39.9 °F 37.8 °F 17.1 °F 40% 30.32 in 10.0 mi SW 3.5 mph - N/A   Mostly Cloudy
10:53 AM 42.1 °F 40.2 °F 14.0 °F 32% 30.33 in 10.0 mi South 3.5 mph - N/A   Overcast
11:53 AM 46.0 °F 41.9 °F 15.1 °F 29% 30.30 in 10.0 mi WSW 8.1 mph - N/A   Overcast
12:53 PM 46.9 °F - 12.0 °F 24% 30.27 in 10.0 mi Variable 4.6 mph - N/A   Overcast
1:53 PM 48.0 °F - 12.9 °F 24% 30.24 in 10.0 mi Calm Calm - N/A   Mostly Cloudy
2:53 PM 50.0 °F - 14.0 °F 24% 30.22 in 10.0 mi South 3.5 mph - N/A   Scattered Clouds
3:53 PM 50.0 °F - 15.1 °F 25% 30.20 in 10.0 mi Variable 3.5 mph - N/A   Clear
4:53 PM 50.0 °F - 17.1 °F 27% 30.20 in 10.0 mi South 5.8 mph - N/A   Clear
5:53 PM 46.0 °F 44.8 °F 18.0 °F 33% 30.21 in 10.0 mi South 3.5 mph - N/A   Clear
6:53 PM 42.1 °F 38.4 °F 21.9 °F 45% 30.21 in 10.0 mi SSE 5.8 mph - N/A   Clear
7:53 PM 39.9 °F 35.1 °F 21.0 °F 47% 30.22 in 10.0 mi SSE 6.9 mph - N/A   Clear
8:53 PM 39.9 °F 35.8 °F 19.9 °F 45% 30.22 in 10.0 mi South 5.8 mph - N/A   Clear
9:53 PM 37.9 °F 32.7 °F 21.0 °F 51% 30.23 in 10.0 mi SSE 6.9 mph - N/A   Clear
11:53 PM 37.0 °F 31.6 °F 21.0 °F 52% 30.20 in 10.0 mi SE 6.9 mph - N/A   Clear